Hourly Data Report for October 13, 2013

All times are specified in Local Standard Time (LST). Add 1 hour to adjust for Daylight Saving Time where and when it is observed.

OTTAWA INTL A
ONTARIO

45°19'00.000" N
75°40'00.000" W
114.90 m
6106001
71628
YOW

Download Data

Hourly Data (October 2013)
Hourly Data Report for October 13, 2013
Temp Definition
°C
Dew Point Temp Definition
°C
Rel Hum Definition
%
Wind Dir Definition
10's deg

Wind Spd Definition
km/h
Visibility Definition
km
Stn Press Definition
kPa
Hmdx Definition


Wind Chill Definition


Weather Definition


TIME
00:00 Legend Double Dagger 9.1 8.0 93 7 5 24.1 101.12     LegendNANA
01:00 Legend Double Dagger 8.3 7.7 96 8 6 24.1 101.15     Clear
02:00 Legend Double Dagger 9.1 7.9 92 9 13 24.1 101.14     LegendNANA
03:00 Legend Double Dagger 9.2 8.1 93 9 11 24.1 101.15     LegendNANA
04:00 Legend Double Dagger 8.9 8.3 96 8 11 6.4 101.20     Fog
05:00 Legend Double Dagger 8.6 8.3 98 8 11 6.4 101.25     Fog
06:00 Legend Double Dagger 8.2 7.9 98 10 10 1.6 101.29     Fog
07:00 Legend Double Dagger 8.6 8.3 98 9 10 0.8 101.32     Fog
08:00 Legend Double Dagger 9.6 9.3 98 10 13 1.2 101.35     Fog
09:00 Legend Double Dagger 12.8 11.1 89 11 11 8.1 101.36     Fog
10:00 Legend Double Dagger 15.6 10.6 72 16 11 19.3 101.33     Mainly Clear
11:00 Legend Double Dagger 17.1 10.8 66 19 8 24.1 101.30     LegendNANA
12:00 Legend Double Dagger 18.3 11.0 62 16 13 24.1 101.23     LegendNANA
13:00 Legend Double Dagger 19.2 10.8 58 16 13 24.1 101.14     Mostly Cloudy
14:00 Legend Double Dagger 20.0 12.4 61 16 11 24.1 101.07     LegendNANA
15:00 Legend Double Dagger 20.3 12.1 59 18 9 24.1 101.03     LegendNANA
16:00 Legend Double Dagger 19.2 11.6 61 17 8 24.1 101.00     Mostly Cloudy
17:00 Legend Double Dagger 18.2 12.3 68 16 6 24.1 101.02     LegendNANA
18:00 Legend Double Dagger 18.0 11.9 67 20 8 24.1 101.05     LegendNANA
19:00 Legend Double Dagger 17.4 11.9 70 22 9 24.1 101.09     Cloudy
20:00 Legend Double Dagger 16.5 11.9 74 12 5 24.1 101.09     LegendNANA
21:00 Legend Double Dagger 16.8 12.8 77 19 5 16.1 101.09     Rain Showers
22:00 Legend Double Dagger 14.5 13.6 94 22 8 6.4 101.09     Rain Showers,Fog
23:00 Legend Double Dagger 14.3 13.7 96 15 4 9.7 101.04     Rain,Fog

Notes on Data Quality.

Legend

  • E = Estimated
  • M = Missing
  • NA = Not Available
  • ‡ = Partner data that is not subject to review by the National Climate Archives
Date modified: